Location: *
(41.3833°S, 177.8333°W)
Time: 07:52:55
(UTC+00:00)

Cosmos 2112 Rocket - Pass Details

Date: 01 April 2020
Orbit: 755 x 788 km, 74.1° (Epoch: 04 June)

Event Time Altitude Azimuth Distance (km) Brightness Sun altitude
Exits shadow 16:18:07 11° 351° (N) 2,299 6.2 -21.3°
Maximum altitude 16:23:19 71° 74° (ENE) 839 4.3 -20.4°
Drops below altitude 10° 16:28:43 10° 156° (SSE) 2,382 7.0 -19.4°
Sets 16:31:08 0° 158° (SSE) 3,319 7.8 -18.9°
